{"data":{"norad_id":55403,"intl_designator":"2023-014N","name":"STARLINK-5597","alt_names":[],"object_type":"PAYLOAD","status":"ACTIVE","operator":null,"country":"US","launch_date":"2023-01-31","launch_site_code":"AFWTR","launch_vehicle":null,"mission":null,"orbit_class":"UNKNOWN","rcs_meters":null,"size_class":null,"mass_kg":null,"dimensions":null,"purposes":["comms"],"wikipedia_slug":null,"has_3d_model":false,"image_url":null,"decayed_at":null,"tle_current":{"epoch":"2026-05-24T23:34:45.475392Z","epoch_age_seconds":73071,"freshness":"FRESH","line1":"1 55403U 23014N   26144.98247078  .00000453  00000+0  45731-4 0  9994","line2":"2 55403  69.9994 232.0791 0003355 268.7742  91.3033 14.98330765183480","mean_motion":14.98330765,"eccentricity":0.0003355,"inclination_deg":69.9994,"raan_deg":232.0791,"arg_perigee_deg":268.7742,"mean_anomaly_deg":91.3033,"bstar":4.5731e-5,"rev_number":18348,"period_min":96.106950056518,"perigee_km":569.72173632481,"apogee_km":574.38531416725,"semimajor_km":6950.190525246,"source":"CELESTRAK","updated_at":"2026-05-25T13:38:17.795282Z"}}}